Weather History for Fort Benning, GA

Change the Weather History Date:

Thursday, October 6, 2011

  Actual Average Record
Temperature  
Mean Temperature 67 °F -  
Max Temperature 84 °F 77 °F 87 °F (1997)
Min Temperature 50 °F 56 °F 41 °F (2010)
Cooling Degree Days 2    
Growing Degree Days 17 (Base 50)    
Moisture  
Dew Point 51 °F    
Average Humidity 91    
Maximum Humidity 100    
Minimum Humidity 31    
Precipitation  
Precipitation 0.00 in - - ()
Sea Level Pressure  
Sea Level Pressure 30.19 in    
Wind  
Wind Speed 0 mph (ENE)    
Max Wind Speed 13 mph    
Max Gust Speed 21 mph    
Visibility 3 miles    
Events Fog , Rain    
Averages and records for this station are not official NWS values.
T = Trace of Precipitation, MM = Missing Value Source: NWS Daily Summary

Daily Weather History Graph

Daily Weather History Graph

Search for Another Location

Airport:

Trip Planner

Search our weather history database for the weather conditions in past years. The results will help you decide how hot, cold, wet, or windy it might be!

Date:

Astronomy

Oct. 06, 2011 Rise Set
Actual Time 7:37 AM EDT 7:18 PM EDT
Civil Twilight 7:12 AM EDT 7:43 PM EDT
Nautical Twilight 6:44 AM EDT 8:11 PM EDT
Astronomical Twilight 6:15 AM EDT 8:39 PM EDT
Moon 4:16 PM EDT (10/6) 2:41 AM EDT (10/6)
Length of Visible Light 12h 30m
Length of Day
11h 41m
Waxing Gibbous, 75% of the Moon is Illuminated
Oct 6
Waxing Gibbous
Oct 11
Full
Oct 19
Last Quarter
Oct 26
New
Nov 2
First Quarter

Hourly Weather History & Observations

Time (EDT) Temp. Dew Point Humidity Pressure Visibility Wind Dir Wind Speed Gust Speed Precip Events Conditions
12:55 AM 54.7 °F 53.1 °F 94% 30.17 in 10.0 mi Calm Calm - N/A   Clear
1:55 AM 52.9 °F 51.4 °F 95% 30.17 in 10.0 mi Calm Calm - N/A   Clear
2:08 AM 51.8 °F 51.8 °F 100% 30.17 in 2.0 mi Calm Calm - N/A   Clear
2:09 AM 51.8 °F 51.8 °F 100% 30.17 in 1.5 mi Calm Calm - N/A   Clear
2:12 AM 51.8 °F 51.8 °F 100% 30.17 in 1.2 mi Calm Calm - N/A   Clear
2:15 AM 51.8 °F 51.8 °F 100% 30.17 in 1.0 mi Calm Calm - N/A   Clear
2:17 AM 51.8 °F 51.8 °F 100% 30.17 in 1.2 mi Calm Calm - N/A   Clear
2:18 AM 51.8 °F 51.8 °F 100% 30.16 in 1.8 mi Calm Calm - N/A   Clear
2:19 AM 51.8 °F 51.8 °F 100% 30.17 in 2.5 mi Calm Calm - N/A   Clear
2:20 AM 51.8 °F 51.8 °F 100% 30.17 in 3.0 mi Calm Calm - N/A   Clear
2:27 AM 51.8 °F 51.8 °F 100% 30.17 in 2.0 mi Calm Calm - N/A   Clear
2:28 AM 51.8 °F 51.8 °F 100% 30.17 in 1.8 mi Calm Calm - N/A   Clear
2:29 AM 51.8 °F 51.8 °F 100% 30.17 in 1.5 mi Calm Calm - N/A   Clear
2:30 AM 51.8 °F 51.8 °F 100% 30.17 in 1.2 mi Calm Calm - N/A   Clear
2:31 AM 51.8 °F 51.8 °F 100% 30.17 in 1.2 mi Calm Calm - N/A   Clear
2:33 AM 51.8 °F 51.8 °F 100% 30.17 in 1.0 mi Calm Calm - N/A   Clear
2:34 AM 51.8 °F 51.8 °F 100% 30.17 in 1.0 mi Calm Calm - N/A   Clear
2:36 AM 51.8 °F 51.8 °F 100% 30.17 in 1.2 mi Calm Calm - N/A   Clear
2:39 AM 51.8 °F 51.8 °F 100% 30.17 in 1.5 mi Calm Calm - N/A   Clear
2:40 AM 51.8 °F 51.8 °F 100% 30.17 in 1.8 mi Calm Calm - N/A   Clear
2:42 AM 51.8 °F 51.8 °F 100% 30.17 in 2.0 mi Calm Calm - N/A   Clear
2:47 AM 51.8 °F 51.8 °F 100% 30.17 in 1.8 mi Calm Calm - N/A   Clear
2:48 AM 51.8 °F 50.0 °F 94% 30.17 in 1.5 mi Calm Calm - N/A   Clear
2:49 AM 51.8 °F 50.0 °F 94% 30.17 in 1.0 mi Calm Calm - N/A   Clear
2:50 AM 50.0 °F 50.0 °F 100% 30.17 in 0.8 mi Calm Calm - N/A   Clear
2:52 AM 50.0 °F 50.0 °F 100% 30.17 in 0.5 mi Calm Calm - N/A Fog Fog
2:54 AM 50.0 °F 48.2 °F 94% 30.17 in 0.5 mi Calm Calm - N/A Fog Fog
2:55 AM 50.0 °F 48.9 °F 96% 30.17 in 0.5 mi Calm Calm - N/A Fog Fog
2:56 AM 50.0 °F 50.0 °F 100% 30.17 in 0.8 mi Calm Calm - N/A   Clear
2:57 AM 50.0 °F 50.0 °F 100% 30.17 in 0.8 mi Calm Calm - N/A   Clear
2:59 AM 50.0 °F 50.0 °F 100% 30.17 in 1.0 mi Calm Calm - N/A   Clear
3:00 AM 50.0 °F 50.0 °F 100% 30.17 in 1.2 mi Calm Calm - N/A   Clear
3:01 AM 50.0 °F 50.0 °F 100% 30.17 in 1.8 mi Calm Calm - N/A   Clear
3:02 AM 50.0 °F 50.0 °F 100% 30.17 in 2.0 mi Calm Calm - N/A   Clear
3:04 AM 50.0 °F 50.0 °F 100% 30.17 in 1.8 mi Calm Calm - N/A   Clear
3:05 AM 50.0 °F 50.0 °F 100% 30.17 in 1.5 mi Calm Calm - N/A   Clear
3:06 AM 50.0 °F 50.0 °F 100% 30.17 in 1.2 mi Calm Calm - N/A   Clear
3:08 AM 50.0 °F 50.0 °F 100% 30.17 in 1.2 mi Calm Calm - N/A   Clear
3:12 AM 51.8 °F 50.0 °F 94% 30.17 in 1.5 mi Calm Calm - N/A   Clear
3:13 AM 51.8 °F 51.8 °F 100% 30.17 in 1.8 mi Calm Calm - N/A   Clear
3:14 AM 51.8 °F 51.8 °F 100% 30.17 in 2.0 mi Calm Calm - N/A   Clear
3:15 AM 51.8 °F 51.8 °F 100% 30.17 in 3.0 mi Calm Calm - N/A   Clear
3:37 AM 50.0 °F 50.0 °F 100% 30.17 in 3.0 mi Calm Calm - N/A   Clear
3:39 AM 51.8 °F 50.0 °F 94% 30.17 in 4.0 mi Calm Calm - N/A   Clear
3:47 AM 50.0 °F 48.2 °F 94% 30.17 in 2.5 mi Calm Calm - N/A   Clear
3:48 AM 50.0 °F 48.2 °F 94% 30.17 in 1.8 mi Calm Calm - N/A   Clear
3:49 AM 50.0 °F 48.2 °F 94% 30.17 in 1.2 mi Calm Calm - N/A   Clear
3:50 AM 50.0 °F 48.2 °F 94% 30.17 in 1.0 mi Calm Calm - N/A   Clear
3:52 AM 50.0 °F 50.0 °F 100% 30.17 in 1.0 mi Calm Calm - N/A   Clear
3:54 AM 50.0 °F 50.0 °F 100% 30.17 in 1.0 mi Calm Calm - N/A   Clear
3:55 AM 51.1 °F 50.2 °F 97% 30.17 in 1.2 mi Calm Calm - N/A   Clear
3:57 AM 51.8 °F 50.0 °F 94% 30.17 in 1.5 mi Calm Calm - N/A   Clear
3:58 AM 51.8 °F 50.0 °F 94% 30.17 in 2.0 mi Calm Calm - N/A   Clear
3:59 AM 51.8 °F 50.0 °F 94% 30.17 in 3.0 mi Calm Calm - N/A   Clear
4:23 AM 50.0 °F 50.0 °F 100% 30.17 in 3.0 mi Calm Calm - N/A   Clear
4:24 AM 50.0 °F 50.0 °F 100% 30.17 in 2.5 mi Calm Calm - N/A   Clear
4:30 AM 51.8 °F 50.0 °F 94% 30.17 in 1.8 mi Calm Calm - N/A   Clear
4:31 AM 51.8 °F 50.0 °F 94% 30.17 in 1.8 mi Calm Calm - N/A   Clear
4:32 AM 51.8 °F 50.0 °F 94% 30.17 in 1.5 mi Calm Calm - N/A   Clear
4:34 AM 51.8 °F 50.0 °F 94% 30.17 in 1.8 mi Calm Calm - N/A   Clear
4:36 AM 50.0 °F 50.0 °F 100% 30.17 in 1.5 mi Calm Calm - N/A   Clear
4:38 AM 50.0 °F 50.0 °F 100% 30.17 in 1.2 mi Calm Calm - N/A   Clear
4:41 AM 50.0 °F 50.0 °F 100% 30.17 in 1.0 mi Calm Calm - N/A   Clear
4:42 AM 50.0 °F 50.0 °F 100% 30.17 in 0.8 mi Calm Calm - N/A   Clear
4:44 AM 50.0 °F 50.0 °F 100% 30.18 in 0.5 mi Calm Calm - N/A Fog Fog
4:45 AM 50.0 °F 50.0 °F 100% 30.17 in 0.5 mi Calm Calm - N/A Fog Fog
4:46 AM 50.0 °F 50.0 °F 100% 30.17 in 0.5 mi Calm Calm - N/A Fog Fog
4:50 AM 50.0 °F 50.0 °F 100% 30.18 in 0.5 mi Calm Calm - N/A Fog Fog
4:51 AM 50.0 °F 50.0 °F 100% 30.18 in 0.8 mi Calm Calm - N/A   Clear
4:53 AM 50.0 °F 50.0 °F 100% 30.18 in 1.0 mi Calm Calm - N/A   Clear
4:54 AM 50.0 °F 50.0 °F 100% 30.18 in 1.2 mi Calm Calm - N/A   Clear
4:55 AM 50.5 °F 49.8 °F 97% 30.18 in 1.8 mi Calm Calm - N/A   Clear
4:56 AM 50.0 °F 50.0 °F 100% 30.18 in 2.0 mi Calm Calm - N/A   Clear
4:58 AM 50.0 °F 50.0 °F 100% 30.18 in 4.0 mi Calm Calm - N/A   Clear
5:06 AM 50.0 °F 50.0 °F 100% 30.18 in 2.5 mi Calm Calm - N/A   Clear
5:11 AM 51.8 °F 50.0 °F 94% 30.18 in 2.0 mi Calm Calm - N/A   Clear
5:12 AM 50.0 °F 50.0 °F 100% 30.18 in 2.5 mi Calm Calm - N/A   Clear
5:14 AM 50.0 °F 50.0 °F 100% 30.18 in 3.0 mi Calm Calm - N/A   Clear
5:17 AM 51.8 °F 50.0 °F 94% 30.18 in 5.0 mi Calm Calm - N/A   Clear
5:55 AM 50.5 °F 50.0 °F 98% 30.18 in 10.0 mi Calm Calm - N/A   Clear
6:55 AM 51.6 °F 50.9 °F 97% 30.21 in 7.0 mi Calm Calm - N/A   Clear
7:08 AM 51.8 °F 50.0 °F 94% 30.22 in 2.0 mi Calm Calm - N/A   Clear
7:09 AM 51.8 °F 50.0 °F 94% 30.22 in 1.5 mi Calm Calm - N/A   Clear
7:10 AM 51.8 °F 50.0 °F 94% 30.22 in 1.0 mi Calm Calm - N/A   Clear
7:12 AM 51.8 °F 50.0 °F 94% 30.22 in 0.8 mi Calm Calm - N/A   Clear
7:14 AM 51.8 °F 50.0 °F 94% 30.22 in 0.5 mi Calm Calm - N/A Fog Fog
7:15 AM 51.8 °F 50.0 °F 94% 30.22 in 0.5 mi Calm Calm - N/A Fog Fog
7:16 AM 51.8 °F 50.0 °F 94% 30.22 in 0.5 mi Calm Calm - N/A Fog Fog
7:24 AM 51.8 °F 50.0 °F 94% 30.22 in 0.2 mi Calm Calm - N/A Fog Fog
7:28 AM 50.0 °F 50.0 °F 100% 30.22 in 0.2 mi Calm Calm - N/A Fog Fog
7:35 AM 50.0 °F 50.0 °F 100% 30.22 in 0.2 mi Calm Calm - N/A Fog Fog
7:36 AM 50.0 °F 50.0 °F 100% 30.23 in 0.2 mi Calm Calm - N/A Fog Fog
7:37 AM 50.0 °F 50.0 °F 100% 30.23 in 0.2 mi Calm Calm - N/A Fog Fog
7:38 AM 50.0 °F 50.0 °F 100% 30.23 in 0.2 mi Calm Calm - N/A Fog Fog
7:40 AM 50.0 °F 50.0 °F 100% 30.23 in 0.5 mi Calm Calm - N/A Fog Fog
7:43 AM 50.0 °F 50.0 °F 100% 30.23 in 0.8 mi Calm Calm - N/A   Clear
7:44 AM 50.0 °F 50.0 °F 100% 30.22 in 1.0 mi Calm Calm - N/A   Clear
7:55 AM 50.0 °F 50.0 °F 100% 30.25 in 4.0 mi Calm Calm - N/A   Clear
8:55 AM 55.9 °F 55.0 °F 97% 30.25 in 10.0 mi Calm Calm - N/A   Clear
9:55 AM 63.9 °F 55.0 °F 73% 30.26 in 10.0 mi Calm Calm - N/A   Clear
10:45 AM 71.6 °F 57.2 °F 60% 30.26 in 10.0 mi Calm Calm - N/A Rain Light Rain
10:55 AM 71.1 °F 56.7 °F 60% 30.26 in 10.0 mi Calm Calm - 0.00 in   Light Drizzle
11:09 AM 75.2 °F 55.4 °F 50% 30.26 in 10.0 mi East 5.8 mph - N/A   Clear
11:55 AM 77.5 °F 55.2 °F 46% 30.25 in 10.0 mi ESE 8.1 mph 17.3 mph 0.00 in   Clear
12:55 PM 79.9 °F 53.8 °F 40% 30.22 in 10.0 mi ESE 12.7 mph 20.7 mph N/A   Clear
1:55 PM 82.0 °F 52.2 °F 35% 30.20 in 10.0 mi ENE 9.2 mph - N/A   Clear
2:55 PM 83.8 °F 50.9 °F 32% 30.18 in 10.0 mi ESE 4.6 mph - N/A   Clear
3:16 PM 84.2 °F 51.8 °F 33% 30.16 in 10.0 mi NE 9.2 mph - N/A   Scattered Clouds
3:55 PM 84.4 °F 51.8 °F 32% 30.16 in 10.0 mi NE 11.5 mph - N/A   Clear
4:55 PM 84.0 °F 50.7 °F 31% 30.16 in 10.0 mi NE 9.2 mph 17.3 mph N/A   Clear
5:55 PM 82.6 °F 50.0 °F 32% 30.16 in 10.0 mi ENE 9.2 mph - N/A   Clear
6:55 PM 79.7 °F 51.1 °F 37% 30.17 in 10.0 mi East 4.6 mph - N/A   Clear
7:55 PM 74.3 °F 52.2 °F 46% 30.19 in 10.0 mi ENE 4.6 mph - N/A   Clear
8:55 PM 73.4 °F 51.4 °F 46% 30.21 in 10.0 mi NE 3.5 mph - N/A   Clear
9:55 PM 62.8 °F 53.6 °F 72% 30.22 in 10.0 mi Calm Calm - N/A   Clear
10:55 PM 59.7 °F 53.6 °F 80% 30.23 in 10.0 mi Calm Calm - N/A   Clear
11:55 PM 59.2 °F 53.2 °F 81% 30.25 in 10.0 mi Calm Calm - N/A   Clear